Simultaneous Nadir Overpasses (SNOs) Predictions

Prediction of SNOs between LANDSAT-8 and NOAA-19 Satellite Orbit:

Table of predicted SNOs for the next 14.0 days since TLE Epoch: 6/29/2020
Index Date (LANDSAT-8) Time (LANDSAT-8) Lat,Lon (LANDSAT-8) SZA (LANDSAT-8 ) Date (NOAA-19) Time (NOAA-19) Lat,Lon (NOAA-19) SZA (NOAA-19 ) Distance(km) Time Diff (sec)
1 07/01/2020 11:51:30 79.78, 28.04 57.71 07/01/2020 11:50:17 79.80, 28.11 57.71 2.89 73
2 07/01/2020 12:40:57 -79.78,-164.32 122.29 07/01/2020 12:41:20 -79.77,-164.33 122.29 0.81 23
3 07/03/2020 18:14:42 79.77, -67.86 57.87 07/03/2020 18:14:34 79.80, -67.82 57.89 3.48 8
4 07/05/2020 23:48:27 -79.79, 28.89 121.90 07/05/2020 23:47:55 -79.79, 29.06 121.90 3.38 32
5 07/06/2020 00:37:53 79.79,-163.48 58.11 07/06/2020 00:38:50 79.77,-163.46 58.11 2.42 57
6 07/08/2020 05:22:11 79.81, 125.58 58.37 07/08/2020 05:21:08 79.81, 125.62 58.35 0.73 63
7 07/08/2020 06:11:39 -79.78, -67.01 121.68 07/08/2020 06:12:13 -79.80, -67.10 121.65 3.36 34
8 07/10/2020 11:45:23 79.79, 29.67 58.62 07/10/2020 11:45:25 79.81, 29.66 58.63 1.45 2
9 07/12/2020 17:19:08 -79.82, 126.43 121.05 07/12/2020 17:18:47 -79.80, 126.42 121.07 1.44 21
